Content
SEND FEEDBACK

Daily
Averages
Monthly
Summary
United Kingdom

RIPON, ENGLAND


Home > Europe > United Kingdom > England
Elevation: 131 feet     Latitude: 54 17N     Longitude: 001 32W

WEATHER
 
SELECT A DAY
Number of Records: 68,284;   Date Range: 8/10/96 - 10/21/14
 
SHARE

PRINT THIS DATA

[ ← Previous Day ]
WEATHER ALMANAC - OCTOBER 18, 2013
[ Next Day → ]
[ °C ]   °F
Weather ElementAverageHighLow
Temperature46.9 °F55.4 °F (5:50 pm) (12:50 am)
Dewpoint45.8 °F53.6 °F (5:50 pm) (7:00 pm)
Humidity95.8 %100 % (1:50 am)88 % (8:50 pm)
Barometer29.94 in30.02 in (9:50 am)29.74 in (11:50 pm)
Wind Speed4.4 mph12.7 mph (8:50 pm)
Weather ElementAverage
Visibility2.6 mi
Wind DirectionSW (220.5 °)

Weather ElementTotal
Precipitation---
Heating Degree Days37.3 (Base 65)
Averaged from 39 records on October 18, 2013
WEATHER CONDITIONS BREAKOUT
WIND DIRECTION BREAKOUT
WEATHER BY HOUR - OCTOBER 18, 2013
[ °C ]   °F
Local TimeTemperatureDewpointHumidityBarometerVisibilityWind DirectionWind SpeedGust SpeedPrecipitationEventsConditions
12:50 AM0.0 °F0.0 °F29.98 in0.3 miNNW (330°)4.6 mphFogFog
1:50 AM39.2 °F39.2 °F100 %29.98 in0.5 miEast (90°)1.2 mphFogFog
2:50 AM37.4 °F37.4 °F100 %30.01 in0.6 miNW (320°)2.3 mphPartly Cloudy
3:50 AM40.0 °F39.0 °F97 %30.01 in0.0 miWest (270°)2.3 mphFogFog
3:50 AM39.2 °F39.2 °F100 %30.01 in0.1 miWest (270°)2.3 mphFogFog
4:50 AM39.2 °F39.2 °F100 %29.98 in0.2 miNorth (350°)2.3 mphFogFog
5:50 AM39.2 °F39.2 °F100 %30.01 in3.7 miNorth (350°)2.3 mphFogFog
6:50 AM41.0 °F40.0 °F97 %30.01 in4.0 miSouth (170°)1.2 mphFogPatches of Fog
6:50 AM41.0 °F41.0 °F100 %29.98 in4.3 miSouth (170°)1.2 mphFogFog
7:50 AM42.8 °F41.0 °F93 %30.01 in5.0 miWest (260°)2.3 mphMostly Cloudy
8:34 AM44.6 °F42.8 °F93 %30.01 in4.3 miWest (270°)1.2 mphOvercast
8:50 AM44.6 °F44.6 °F100 %30.01 in2.5 miNW (320°)2.3 mphOvercast
9:50 AM46.0 °F45.0 °F96 %30.02 in2.0 miNW (310°)2.3 mphMist
9:50 AM46.4 °F44.6 °F93 %30.01 in2.5 miNW (310°)2.3 mphOvercast
10:12 AM46.4 °F46.4 °F100 %30.01 in2.5 miNW (320°)3.5 mphOvercast
10:50 AM46.4 °F46.4 °F100 %30.01 in2.2 miNorth (360°)3.5 mphLight Drizzle
11:15 AM46.4 °F46.4 °F100 %30.01 in1.4 miNNW (340°)2.3 mphLight Drizzle
11:50 AM48.2 °F46.4 °F93 %30.01 in1.6 miNorth (10°)2.3 mphLight Drizzle
12:14 PM48.2 °F48.2 °F100 %29.98 in1.9 miNNW (340°)3.5 mphOvercast
12:33 PM48.2 °F48.2 °F100 %29.98 inNNW (340°)4.6 mphMostly Cloudy
12:50 PM49.0 °F48.0 °F96 %29.99 in2.0 miNorth4.6 mphRainLight Drizzle
12:50 PM48.2 °F48.2 °F100 %29.98 inNorth (360°)4.6 mphOvercast
1:22 PM50.0 °F48.2 °F94 %29.95 in2.8 miNorth (360°)1.2 mphOvercast
1:50 PM50.0 °F50.0 °F100 %29.95 in2.5 miNNW (330°)1.2 mphLight Drizzle
2:08 PM50.0 °F50.0 °F100 %29.95 in1.9 miNNE (30°)1.2 mphRainRain
2:26 PM51.8 °F50.0 °F94 %29.95 in2.5 miNNE (20°)2.3 mphLight Drizzle
2:50 PM51.8 °F50.0 °F94 %29.92 in3.1 miNE (40°)1.2 mphScattered Clouds
3:50 PM52.0 °F51.0 °F94 %29.91 in2.0 miNW (320°)3.5 mphRainDrizzle
3:50 PM51.8 °F50.0 °F94 %29.89 inNW (320°)3.5 mphOvercast
4:50 PM51.8 °F51.8 °F100 %29.89 inNNE (20°)2.3 mphLight Drizzle
5:50 PM55.4 °F53.6 °F94 %29.86 in3.1 miSE (130°)8.1 mphRainLight Rain
6:50 PM55.0 °F53.0 °F92 %29.86 in3.0 miSSE (150°)9.2 mphRainLight Rain
6:50 PM55.4 °F53.6 °F94 %29.86 inSSE (150°)9.2 mphRainLight Rain
7:50 PM55.4 °F53.6 °F94 %29.83 in3.1 miSE (140°)8.1 mphHaze
8:50 PM55.4 °F51.8 °F88 %29.80 in3.7 miSSE (150°)12.7 mphHaze
9:50 PM55.0 °F53.0 °F88 %29.81 in4.0 miSSE (150°)12.7 mphMist
9:50 PM55.4 °F51.8 °F88 %29.80 in4.3 miSSE (150°)12.7 mphHaze
10:50 PM55.4 °F51.8 °F88 %29.77 in4.3 miSE (140°)11.5 mphHaze
11:50 PM55.4 °F51.8 °F88 %29.74 in5.0 miSE (140°)12.7 mphHaze
Hourly data recorded from EGXE, located miles away from Ripon, England







STORIES FROM OUR PARTNERS